STARLINK-35643 (66456 NORAD) Tracking and Keplerian Element Data

This shows tracking and keplerian element data for the satellite.

Feedback or suggestion? Click here.




ElementValue
Catalog66456
NameSTARLINK-35643
Epoch Orbit659
Epoch Day353.45472068
Epoch Year2025
RAAN32.926
Inclination43.0003
Eccentricity0.0001797
Argument of Perigee255.7851
Mean Anonmoly104.2806
Mean Motion15.40734467
Decay Rate0.00044899
L11 66456U 25262A 25353.45472068 .00044899 00000+0 10745-2 0 9990
L22 66456 43.0003 32.9260 0001797 255.7851 104.2806 15.40734467 6590



Live tracking and technical data element details for STARLINK-35643 (NORAD 66456). STARLINK-35643 can be tracked NOW for your location showing map with azimuth and elevation plus other details from your city location.







IsCatalogInMostPopularTable: catalog: 66456, numindb: 11
Update: records affected: 1



GetName: 66456 STARLINK-35643

Hit Count: updated at: Mon, 20 Apr 2026 09:18:09 GMT